STARLINK-5153, 54088

Orbit data source: Space-Track

STARLINK-5153, 54088 is a payload satellite owned by SpaceX/Seattle (US) in LEO that was launched on Thu, 20 Oct 2022 UTC via an FALCON 9 launch vehicle from the Air Force Eastern Test Range (AFETR). Payload-class satellites include a variety of spacecraft equipped with specific instruments for various scientific and technological missions. These include communications satellites like Starlink; space stations such as the ISS; scientific satellites like the Hubble; Earth observation satellites from companies like Planet Labs, Umbra, and HawkEye 360; GPS; miniature CubeSats for education and research; and military/defense satellites.

Loading next visibility...
Identifier
54088, 2022-136AP
Orbit
LEO
Country
Flag of USUS
Related business
Manufacturer
SpaceX/Seattle
Mission
Operational Commercial Communications
Bus & Motor
STARLINK, Unknown motor
Mass
305 kg wet, ~290 kg dry
Launch date (UTC)
2022-10-20 (3 years ago)
Launch vehicle
FALCON 9
Launch site
Air Force Eastern Test Range (AFETR)
Object type
Payload
Rocket body
Debris
Shape & HBR
Box + 1 Pan, 4.4 m
Radar Cross Section
13.562 m², Large (>1 m²)

Expand to show TLE details & history
Last TLE update: 20 hours ago

TLE from 20 hours ago
0 STARLINK-5153
1 54088U 22136AP  25260.67769601  .00000054  00000-0  21496-4 0  9991
2 54088  53.2189  30.9071 0000862  90.4572 269.6519 15.08838765160868
Epoch: 2025-09-17T16:15Z
TLE epoch observation values (Epoch: 2025-09-17T16:15:52.935Z)
Latitude
-0.00001°
Longitude
150.08632°
Altitude
540.648 km
Speed
7.593 km/s
True Right ascension
02h 03m 37s
True Declination
0° 00' 00"
Sunlit
Object was in full shadow at epoch
Visualization orbit readout
Latitude
Unknown
Longitude
Unknown
Altitude
Unknown
Speed
Unknown
Apparent Right ascension
Unknown
Apparent Declination
Unknown
Sunlit
N/A
Visualization observer readout
Local Sidereal Time
05:01:17
Azimuth
Unknown
Elevation
Unknown
Doppler factor
Unknown
Orbital elements
Apogee altitude
540.588 km
Perigee altitude
539.396 km
Semi-major axis
6,918.129 km
Eccentricity
0.00009
Inclination
53.2189°
RAAN
30.9071°
Arg. of periapsis
90.4572°
True anomaly
269.64202°
Mean anomaly
269.6519°
Eccentric anomaly
269.64696°
Mean motion
3.7719 °/min
Orbital period
95.44 mins
BSTAR
0.000021496
Loading maneuver chart data...
Computing Atmospheric mass density...
Loading historical data...
Loading historical data...
Loading historical data...
Loading historical data...
Loading historical data...
Loading historical data...
Loading historical data...

Documentation

Showing up to 5 results
|